This is the latest recevied weather packets stored in our database for station/object EA3KZ-1. If no packets are shown the sender has not sent any weather packets the latest 10 day(s).
| Time | Temp. | Humidity | Pressure | Rain* | Wind** | Luminosity | Snow |
|---|---|---|---|---|---|---|---|
| 1777630844 | 19.44° C | 61% | 1018 hPa | 0 mm | - | - | - |
| 1777630241 | 19.44° C | 62% | 1017.9 hPa | 0 mm | - | - | - |
| 1777629639 | 19.44° C | 61% | 1017.9 hPa | 0 mm | - | - | - |
| 1777629036 | 19.44° C | 62% | 1017.9 hPa | 0 mm | - | - | - |
| 1777628433 | 18.89° C | 63% | 1017.8 hPa | 0 mm | - | - | - |
| 1777627831 | 19.44° C | 65% | 1017.8 hPa | 0 mm | - | - | - |
| 1777627229 | 18.89° C | 67% | 1017.7 hPa | 0 mm | - | - | - |
| 1777626626 | 18.89° C | 68% | 1017.7 hPa | 0 mm | - | - | - |
| 1777626023 | 18.89° C | 67% | 1017.6 hPa | 0 mm | - | - | - |
| 1777625421 | 18.89° C | 67% | 1017.5 hPa | 0 mm | - | - | - |
| 1777624818 | 18.33° C | 68% | 1017.5 hPa | 0 mm | - | - | - |
| 1777624216 | 18.33° C | 69% | 1017.4 hPa | 0 mm | - | - | - |
| 1777623673 | 17.78° C | 68% | 1017.4 hPa | 0 mm | - | - | - |
| 1777623070 | 17.78° C | 69% | 1017.2 hPa | 0 mm | - | - | - |
| 1777622468 | 17.22° C | 70% | 1017 hPa | 0 mm | - | - | - |
| 1777621865 | 17.22° C | 71% | 1017.1 hPa | 0 mm | - | - | - |
| 1777621263 | 17.22° C | 71% | 1016.9 hPa | 0 mm | - | - | - |
| 1777620660 | 16.67° C | 72% | 1016.8 hPa | 0 mm | - | - | - |
| 1777620057 | 16.67° C | 75% | 1016.8 hPa | 0 mm | - | - | - |
| 1777619455 | 16.11° C | 75% | 1016.6 hPa | 0 mm | - | - | - |
| 1777618852 | 16.67° C | 75% | 1016.6 hPa | 0 mm | - | - | - |
| 1777618249 | 16.11° C | 76% | 1016.6 hPa | 0 mm | - | - | - |
| 1777617646 | 16.11° C | 78% | 1016.5 hPa | 0 mm | - | - | - |
| 1777617044 | 16.11° C | 79% | 1016.4 hPa | 0 mm | - | - | - |
| 1777616441 | 15.56° C | 80% | 1016.5 hPa | 0 mm | - | - | - |
* Rain latest hour (hover to see other rain measurements)
** Current wind speed in m/s (hover to see current wind gust speed)